User: anonymous
Location: Bethera
(33.2010°N, 79.7880°W)
Time: 11:11:03
(UTC-04:00)
Language:

Cosmos 1833 Rocket - Orbit

View from above orbital plane
View from above orbital plane
View from above satellite
View from above satellite

Ground track
Ground track

The orbit data is extracted from the following two-line orbital elements,

1 17590U 87027B   14207.13975356  .00000165  00000-0  10644-3 0  7335
2 17590 071.0018 215.7116 0002994 128.1203 232.0191 14.16643537414417
Epoch (UTC): 26 July 2014 03:21:14
Eccentricity: 0.0002994
inclination: 71.0018°
perigee height: 834 km
apogee height: 839 km
right ascension of ascending node: 215.7116°
argument of perigee: 128.1203°
revolutions per day: 14.16643537
mean anomaly at epoch: 232.0191°
orbit number at epoch: 41441

The dashed part of the orbit path shows where the satellite is in the earth's shadow,  

DLR